Location: Beetenbrück
(52.8113°N, 9.5946°E)
Time: 22:45:09
(UTC+00:00)

Cosmos 1833 Rocket - Pass Details

Date: 14 April 2026
Orbit: 832 x 838 km, 71.0° (Epoch: 12 May)

Event Time Altitude Azimuth Distance (km) Brightness Sun altitude
Exits shadow 23:35:49 27° 97° (E) 1,568 4.0 -27.4°
Drops below altitude 10° 23:40:02 10° 49° (NE) 2,450 5.6 -27.4°
Sets 23:42:48 0° 38° (NE) 3,390 6.7 -27.3°
